Weather History for Rolla, MO

Change the Weather History Date:

Tuesday, January 8, 2013

  Actual Average Record
Temperature  
Mean Temperature 42 °F 31 °F  
Max Temperature 55 °F 40 °F 69 °F (2006)
Min Temperature 29 °F 21 °F -5 °F (1970)
Degree Days  
Heating Degree Days 23 34  
Month to date heating degree days 296 272  
Since 1 July heating degree days 2049 2189  
Cooling Degree Days 0 0  
Month to date cooling degree days 0 0  
Year to date cooling degree days 0 0  
Moisture  
Dew Point 27 °F    
Average Humidity 48    
Maximum Humidity 72    
Minimum Humidity 24    
Precipitation  
Precipitation T in 0.07 in 1.13 in (1948)
Month to date precipitation T 0.61  
Year to date precipitation T 0.61  
Sea Level Pressure  
Sea Level Pressure 30.12 in    
Wind  
Wind Speed 12 mph (South)    
Max Wind Speed 17 mph    
Max Gust Speed 22 mph    
Visibility 10 miles    
Events Rain    
T = Trace of Precipitation, MM = Missing Value Source: NWS Daily Summary

Daily Weather History Graph

Daily Weather History Graph

Search for Another Location

Airport:

Trip Planner

Search our weather history database for the weather conditions in past years. The results will help you decide how hot, cold, wet, or windy it might be!

Date:

Astronomy

Jan. 08, 2013 Rise Set
Actual Time 7:23 AM CST 5:04 PM CST
Civil Twilight 6:54 AM CST 5:33 PM CST
Nautical Twilight 6:21 AM CST 6:06 PM CST
Astronomical Twilight 5:49 AM CST 6:38 PM CST
Moon 3:57 AM CST (1/8) 2:06 PM CST (1/8)
Length of Visible Light 10h 39m
Length of Day
9h 40m
Waning Crescent, 13% of the Moon is Illuminated
Jan 8
Waning Crescent
Jan 11
New
Jan 18
First Quarter
Jan 26
Full
Feb 3
Last Quarter

Hourly Weather History & Observations

Time (CST) Temp. Windchill Dew Point Humidity Pressure Visibility Wind Dir Wind Speed Gust Speed Precip Events Conditions
12:53 AM 34.0 °F 26.0 °F 23.0 °F 64% 30.12 in 10.0 mi SSW 10.4 mph - N/A   Clear
1:53 AM 32.0 °F 23.0 °F 23.0 °F 69% 30.12 in 10.0 mi South 11.5 mph - N/A   Clear
2:53 AM 30.9 °F 22.2 °F 23.0 °F 72% 30.14 in 10.0 mi South 10.4 mph - N/A   Clear
3:53 AM 30.9 °F 21.7 °F 23.0 °F 72% 30.13 in 10.0 mi South 11.5 mph - N/A   Clear
4:53 AM 30.9 °F 21.7 °F 23.0 °F 72% 30.14 in 10.0 mi South 11.5 mph - N/A   Clear
5:53 AM 30.9 °F 22.8 °F 23.0 °F 72% 30.14 in 10.0 mi South 9.2 mph - N/A   Clear
6:53 AM 30.0 °F 21.1 °F 21.9 °F 72% 30.15 in 10.0 mi South 10.4 mph - N/A   Clear
7:53 AM 30.9 °F 22.2 °F 23.0 °F 72% 30.17 in 10.0 mi South 10.4 mph - N/A   Clear
8:53 AM 37.0 °F 29.8 °F 24.1 °F 59% 30.17 in 10.0 mi South 10.4 mph - N/A   Clear
9:53 AM 41.0 °F 35.2 °F 25.0 °F 53% 30.17 in 10.0 mi South 9.2 mph - N/A   Clear
10:53 AM 45.0 °F 38.9 °F 25.0 °F 46% 30.15 in 10.0 mi South 12.7 mph - N/A   Clear
11:53 AM 48.9 °F - 26.1 °F 41% 30.12 in 10.0 mi South 10.4 mph - N/A   Clear
12:53 PM 51.1 °F - 25.0 °F 36% 30.09 in 10.0 mi South 9.2 mph - N/A   Clear
1:53 PM 53.1 °F - 24.1 °F 32% 30.06 in 10.0 mi South 10.4 mph - N/A   Clear
2:53 PM 54.0 °F - 21.0 °F 28% 30.05 in 10.0 mi South 12.7 mph - N/A   Partly Cloudy
3:53 PM 53.1 °F - 18.0 °F 25% 30.08 in 10.0 mi South 15.0 mph - N/A   Clear
4:53 PM 50.0 °F - 21.9 °F 33% 30.06 in 10.0 mi South 13.8 mph - N/A   Clear
5:53 PM 48.9 °F - 26.1 °F 41% 30.09 in 10.0 mi South 13.8 mph - N/A   Mostly Cloudy
6:53 PM 48.9 °F - 28.9 °F 46% 30.10 in 10.0 mi South 11.5 mph - N/A   Overcast
7:53 PM 48.9 °F - 33.1 °F 54% 30.11 in 10.0 mi South 12.7 mph 21.9 mph N/A   Overcast
8:53 PM 48.9 °F - 34.0 °F 56% 30.12 in 10.0 mi South 15.0 mph - N/A   Overcast
9:53 PM 48.0 °F - 37.0 °F 66% 30.12 in 10.0 mi South 16.1 mph - 0.00 in Rain Light Rain
10:53 PM 46.4 °F 40.1 °F 39.2 °F 76% 30.14 in 10.0 mi SSW 15.0 mph - N/A   Overcast
11:04 PM 46.4 °F 40.1 °F 39.2 °F 76% 30.15 in 10.0 mi SSW 15.0 mph - N/A   Overcast
11:32 PM 46.4 °F 40.7 °F 39.2 °F 76% 30.16 in 10.0 mi SSW 12.7 mph - N/A   Overcast
11:53 PM 46.0 °F 40.6 °F 41.0 °F 83% 30.18 in 10.0 mi SW 11.5 mph - N/A   Overcast